owner,sensor,date,latitude,longitude,vertical_datum,wind_speed,wind_to_direction,wind_speed_of_gust,qcFlag 
TCOON,ioos:station:TCOON:003:1,2013-12-01T00:00:00Z,26.8015,-97.4706,0.0,3.2,131.0,3.8,'11111222,11111222,11111222' 
TCOON,ioos:station:TCOON:003:1,2013-12-01T00:06:00Z,26.8015,-97.4706,0.0,3.6,135.0,3.9,'11111222,11111222,11111222' 
TCOON,ioos:station:TCOON:003:1,2013-12-01T00:12:00Z,26.8015,-97.4706,0.0,3.8,141.0,4.4,'11111222,11111222,11111222' 
TCOON,ioos:station:TCOON:003:1,2013-12-01T00:18:00Z,26.8015,-97.4706,0.0,3.7,137.0,4.2,'11111222,11111222,11111222' 
TCOON,ioos:station:TCOON:003:1,2013-12-01T00:24:00Z,26.8015,-97.4706,0.0,3.9,137.0,4.4,'11111222,11111222,11111222' 
TCOON,ioos:station:TCOON:003:1,2013-12-01T00:30:00Z,26.8015,-97.4706,0.0,3.8,138.0,4.2,'11111222,11111222,11111222' 
TCOON,ioos:station:TCOON:003:1,2013-12-01T00:36:00Z,26.8015,-97.4706,0.0,3.8,138.0,4.2,'11111222,11111222,11111222' 
TCOON,ioos:station:TCOON:003:1,2013-12-01T00:42:00Z,26.8015,-97.4706,0.0,3.8,135.0,4.3,'11111222,11111222,11111222' 
TCOON,ioos:station:TCOON:003:1,2013-12-01T00:48:00Z,26.8015,-97.4706,0.0,3.7,133.0,4.3,'11111222,11111222,11111222' 
TCOON,ioos:station:TCOON:003:1,2013-12-01T00:54:00Z,26.8015,-97.4706,0.0,3.4,136.0,3.9,'11111222,11111222,11111222' 
TCOON,ioos:station:TCOON:003:1,2013-12-01T01:00:00Z,26.8015,-97.4706,0.0,3.1,138.0,4.2,'11111222,11111222,11111222' 
TCOON,ioos:station:TCOON:003:1,2013-12-01T01:06:00Z,26.8015,-97.4706,0.0,3.1,136.0,3.8,'11111222,11111222,11111222' 
TCOON,ioos:station:TCOON:003:1,2013-12-01T01:12:00Z,26.8015,-97.4706,0.0,3.3,137.0,3.9,'11111222,11111222,11111222' 
TCOON,ioos:station:TCOON:003:1,2013-12-01T01:18:00Z,26.8015,-97.4706,0.0,3.0,138.0,3.4,'11111222,11111222,11111222' 
TCOON,ioos:station:TCOON:003:1,2013-12-01T01:24:00Z,26.8015,-97.4706,0.0,2.7,137.0,3.6,'11111222,11111222,11111222' 
TCOON,ioos:station:TCOON:003:1,2013-12-01T01:30:00Z,26.8015,-97.4706,0.0,2.2,139.0,2.7,'11111222,11111222,11111222' 
TCOON,ioos:station:TCOON:003:1,2013-12-01T01:36:00Z,26.8015,-97.4706,0.0,2.6,136.0,2.8,'11111222,11111222,11111222' 
TCOON,ioos:station:TCOON:003:1,2013-12-01T01:42:00Z,26.8015,-97.4706,0.0,2.7,141.0,2.9,'11111222,11111222,11111222' 
TCOON,ioos:station:TCOON:003:1,2013-12-01T01:48:00Z,26.8015,-97.4706,0.0,2.6,139.0,3.0,'11111222,11111222,11111222' 
TCOON,ioos:station:TCOON:003:1,2013-12-01T01:54:00Z,26.8015,-97.4706,0.0,2.6,142.0,2.9,'11111222,11111222,11111222' 
TCOON,ioos:station:TCOON:003:1,2013-12-01T02:00:00Z,26.8015,-97.4706,0.0,2.8,138.0,3.1,'11111222,11111222,11111222' 
TCOON,ioos:station:TCOON:003:1,2013-12-01T02:06:00Z,26.8015,-97.4706,0.0,3.1,134.0,3.5,'11111222,11111222,11111222' 
TCOON,ioos:station:TCOON:003:1,2013-12-01T02:12:00Z,26.8015,-97.4706,0.0,4.0,121.0,4.4,'11111222,11111222,11111222' 
TCOON,ioos:station:TCOON:003:1,2013-12-01T02:18:00Z,26.8015,-97.4706,0.0,4.6,121.0,4.9,'11111222,11111222,11111222' 
TCOON,ioos:station:TCOON:003:1,2013-12-01T02:24:00Z,26.8015,-97.4706,0.0,4.3,121.0,4.9,'11111222,11111222,11111222' 
TCOON,ioos:station:TCOON:003:1,2013-12-01T02:30:00Z,26.8015,-97.4706,0.0,4.2,118.0,5.1,'11111222,11111222,11111222' 
TCOON,ioos:station:TCOON:003:1,2013-12-01T02:36:00Z,26.8015,-97.4706,0.0,3.9,125.0,4.6,'11111222,11111222,11111222' 
TCOON,ioos:station:TCOON:003:1,2013-12-01T02:42:00Z,26.8015,-97.4706,0.0,3.6,130.0,4.4,'11111222,11111222,11111222' 
TCOON,ioos:station:TCOON:003:1,2013-12-01T02:48:00Z,26.8015,-97.4706,0.0,3.2,128.0,4.0,'11111222,11111222,11111222' 
TCOON,ioos:station:TCOON:003:1,2013-12-01T02:54:00Z,26.8015,-97.4706,0.0,3.6,123.0,4.0,'11111222,11111222,11111222' 
TCOON,ioos:station:TCOON:003:1,2013-12-01T03:00:00Z,26.8015,-97.4706,0.0,3.5,122.0,4.1,'11111222,11111222,11111222' 
TCOON,ioos:station:TCOON:003:1,2013-12-01T03:06:00Z,26.8015,-97.4706,0.0,3.3,120.0,3.8,'11111222,11111222,11111222' 
TCOON,ioos:station:TCOON:003:1,2013-12-01T03:12:00Z,26.8015,-97.4706,0.0,2.7,126.0,3.6,'11111222,11111222,11111222' 
TCOON,ioos:station:TCOON:003:1,2013-12-01T03:18:00Z,26.8015,-97.4706,0.0,2.8,131.0,3.1,'11111222,11111222,11111222' 
TCOON,ioos:station:TCOON:003:1,2013-12-01T03:24:00Z,26.8015,-97.4706,0.0,2.1,170.0,2.9,'11111222,11111222,11111222' 
TCOON,ioos:station:TCOON:003:1,2013-12-01T03:30:00Z,26.8015,-97.4706,0.0,1.9,178.0,2.1,'11111222,11111222,11111222' 
TCOON,ioos:station:TCOON:003:1,2013-12-01T03:36:00Z,26.8015,-97.4706,0.0,2.0,181.0,2.6,'11111222,11111222,11111222' 
TCOON,ioos:station:TCOON:003:1,2013-12-01T03:42:00Z,26.8015,-97.4706,0.0,1.6,175.0,2.0,'11111222,11111222,11111222' 
TCOON,ioos:station:TCOON:003:1,2013-12-01T03:48:00Z,26.8015,-97.4706,0.0,1.7,182.0,1.9,'11111222,11111222,11111222' 
TCOON,ioos:station:TCOON:003:1,2013-12-01T03:54:00Z,26.8015,-97.4706,0.0,1.6,155.0,2.0,'11111222,11111222,11111222' 
TCOON,ioos:station:TCOON:003:1,2013-12-01T04:00:00Z,26.8015,-97.4706,0.0,1.7,138.0,1.9,'11111222,11111222,11111222' 
TCOON,ioos:station:TCOON:003:1,2013-12-01T04:06:00Z,26.8015,-97.4706,0.0,2.1,104.0,2.4,'11111222,11111222,11111222' 
TCOON,ioos:station:TCOON:003:1,2013-12-01T04:12:00Z,26.8015,-97.4706,0.0,3.4,114.0,4.2,'11111222,11111222,11111222' 
TCOON,ioos:station:TCOON:003:1,2013-12-01T04:18:00Z,26.8015,-97.4706,0.0,3.4,121.0,4.1,'11111222,11111222,11111222' 
TCOON,ioos:station:TCOON:003:1,2013-12-01T04:24:00Z,26.8015,-97.4706,0.0,2.9,115.0,3.8,'11111222,11111222,11111222' 
TCOON,ioos:station:TCOON:003:1,2013-12-01T04:30:00Z,26.8015,-97.4706,0.0,3.3,119.0,3.7,'11111222,11111222,11111222' 
TCOON,ioos:station:TCOON:003:1,2013-12-01T04:36:00Z,26.8015,-97.4706,0.0,3.5,122.0,3.9,'11111222,11111222,11111222' 
TCOON,ioos:station:TCOON:003:1,2013-12-01T04:42:00Z,26.8015,-97.4706,0.0,3.6,121.0,4.3,'11111222,11111222,11111222' 
TCOON,ioos:station:TCOON:003:1,2013-12-01T04:48:00Z,26.8015,-97.4706,0.0,3.7,116.0,4.2,'11111222,11111222,11111222' 
TCOON,ioos:station:TCOON:003:1,2013-12-01T04:54:00Z,26.8015,-97.4706,0.0,3.8,119.0,4.4,'11111222,11111222,11111222' 
TCOON,ioos:station:TCOON:003:1,2013-12-01T05:00:00Z,26.8015,-97.4706,0.0,3.7,123.0,4.2,'11111222,11111222,11111222' 
TCOON,ioos:station:TCOON:003:1,2013-12-01T05:06:00Z,26.8015,-97.4706,0.0,3.8,125.0,4.2,'11111222,11111222,11111222' 
TCOON,ioos:station:TCOON:003:1,2013-12-01T05:12:00Z,26.8015,-97.4706,0.0,3.5,126.0,4.1,'11111222,11111222,11111222' 
TCOON,ioos:station:TCOON:003:1,2013-12-01T05:18:00Z,26.8015,-97.4706,0.0,3.2,120.0,3.6,'11111222,11111222,11111222' 
TCOON,ioos:station:TCOON:003:1,2013-12-01T05:24:00Z,26.8015,-97.4706,0.0,3.5,120.0,4.0,'11111222,11111222,11111222' 
TCOON,ioos:station:TCOON:003:1,2013-12-01T05:30:00Z,26.8015,-97.4706,0.0,3.5,123.0,4.1,'11111222,11111222,11111222' 
TCOON,ioos:station:TCOON:003:1,2013-12-01T05:36:00Z,26.8015,-97.4706,0.0,3.4,127.0,3.9,'11111222,11111222,11111222' 
TCOON,ioos:station:TCOON:003:1,2013-12-01T05:42:00Z,26.8015,-97.4706,0.0,3.2,128.0,3.7,'11111222,11111222,11111222' 
TCOON,ioos:station:TCOON:003:1,2013-12-01T05:48:00Z,26.8015,-97.4706,0.0,3.2,131.0,3.5,'11111222,11111222,11111222' 
TCOON,ioos:station:TCOON:003:1,2013-12-01T05:54:00Z,26.8015,-97.4706,0.0,3.1,134.0,3.6,'11111222,11111222,11111222' 
TCOON,ioos:station:TCOON:003:1,2013-12-01T06:00:00Z,26.8015,-97.4706,0.0,2.9,135.0,3.3,'11111222,11111222,11111222' 
TCOON,ioos:station:TCOON:003:1,2013-12-01T06:06:00Z,26.8015,-97.4706,0.0,2.9,139.0,3.1,'11111222,11111222,11111222' 
TCOON,ioos:station:TCOON:003:1,2013-12-01T06:12:00Z,26.8015,-97.4706,0.0,2.8,136.0,3.0,'11111222,11111222,11111222' 
TCOON,ioos:station:TCOON:003:1,2013-12-01T06:18:00Z,26.8015,-97.4706,0.0,2.7,128.0,2.9,'11111222,11111222,11111222' 
TCOON,ioos:station:TCOON:003:1,2013-12-01T06:24:00Z,26.8015,-97.4706,0.0,2.7,124.0,3.0,'11111222,11111222,11111222' 
TCOON,ioos:station:TCOON:003:1,2013-12-01T06:30:00Z,26.8015,-97.4706,0.0,2.6,138.0,3.1,'11111222,11111222,11111222' 
TCOON,ioos:station:TCOON:003:1,2013-12-01T06:36:00Z,26.8015,-97.4706,0.0,2.7,138.0,2.9,'11111222,11111222,11111222' 
TCOON,ioos:station:TCOON:003:1,2013-12-01T06:42:00Z,26.8015,-97.4706,0.0,3.0,142.0,3.2,'11111222,11111222,11111222' 
TCOON,ioos:station:TCOON:003:1,2013-12-01T06:48:00Z,26.8015,-97.4706,0.0,2.3,150.0,3.0,'11111222,11111222,11111222' 
TCOON,ioos:station:TCOON:003:1,2013-12-01T06:54:00Z,26.8015,-97.4706,0.0,2.5,139.0,2.6,'11111222,11111222,11111222' 
TCOON,ioos:station:TCOON:003:1,2013-12-01T07:00:00Z,26.8015,-97.4706,0.0,2.2,170.0,2.5,'11111222,11111222,11111222' 
TCOON,ioos:station:TCOON:003:1,2013-12-01T07:06:00Z,26.8015,-97.4706,0.0,2.5,154.0,2.7,'11111222,11111222,11111222' 
TCOON,ioos:station:TCOON:003:1,2013-12-01T07:12:00Z,26.8015,-97.4706,0.0,2.1,160.0,2.4,'11111222,11111222,11111222' 
TCOON,ioos:station:TCOON:003:1,2013-12-01T07:18:00Z,26.8015,-97.4706,0.0,2.1,154.0,2.3,'11111222,11111222,11111222' 
TCOON,ioos:station:TCOON:003:1,2013-12-01T07:24:00Z,26.8015,-97.4706,0.0,2.3,142.0,2.4,'11111222,11111222,11111222' 
TCOON,ioos:station:TCOON:003:1,2013-12-01T07:30:00Z,26.8015,-97.4706,0.0,1.9,138.0,2.3,'11111222,11111222,11111222' 
TCOON,ioos:station:TCOON:003:1,2013-12-01T07:36:00Z,26.8015,-97.4706,0.0,1.9,150.0,2.1,'11111222,11111222,11111222' 
TCOON,ioos:station:TCOON:003:1,2013-12-01T07:42:00Z,26.8015,-97.4706,0.0,2.1,168.0,2.2,'11111222,11111222,11111222' 
TCOON,ioos:station:TCOON:003:1,2013-12-01T07:48:00Z,26.8015,-97.4706,0.0,2.1,177.0,2.3,'11111222,11111222,11111222' 
TCOON,ioos:station:TCOON:003:1,2013-12-01T07:54:00Z,26.8015,-97.4706,0.0,2.4,164.0,2.6,'11111222,11111222,11111222' 
TCOON,ioos:station:TCOON:003:1,2013-12-01T08:00:00Z,26.8015,-97.4706,0.0,2.4,165.0,2.6,'11111222,11111222,11111222' 
TCOON,ioos:station:TCOON:003:1,2013-12-01T08:06:00Z,26.8015,-97.4706,0.0,2.3,172.0,2.5,'11111222,11111222,11111222' 
TCOON,ioos:station:TCOON:003:1,2013-12-01T08:12:00Z,26.8015,-97.4706,0.0,2.7,169.0,2.9,'11111222,11111222,11111222' 
TCOON,ioos:station:TCOON:003:1,2013-12-01T08:18:00Z,26.8015,-97.4706,0.0,2.8,173.0,3.0,'11111222,11111222,11111222' 
TCOON,ioos:station:TCOON:003:1,2013-12-01T08:24:00Z,26.8015,-97.4706,0.0,2.8,170.0,3.0,'11111222,11111222,11111222' 
TCOON,ioos:station:TCOON:003:1,2013-12-01T08:30:00Z,26.8015,-97.4706,0.0,2.5,178.0,2.9,'11111222,11111222,11111222' 
TCOON,ioos:station:TCOON:003:1,2013-12-01T08:36:00Z,26.8015,-97.4706,0.0,2.1,172.0,2.6,'11111222,11111222,11111222' 
TCOON,ioos:station:TCOON:003:1,2013-12-01T08:42:00Z,26.8015,-97.4706,0.0,1.7,173.0,2.0,'11111222,11111222,11111222' 
TCOON,ioos:station:TCOON:003:1,2013-12-01T08:48:00Z,26.8015,-97.4706,0.0,1.8,202.0,2.0,'11111222,11111222,11111222' 
TCOON,ioos:station:TCOON:003:1,2013-12-01T08:54:00Z,26.8015,-97.4706,0.0,2.1,225.0,2.4,'11111222,11111222,11111222' 
TCOON,ioos:station:TCOON:003:1,2013-12-01T09:00:00Z,26.8015,-97.4706,0.0,2.1,230.0,2.4,'11111222,11111222,11111222' 
TCOON,ioos:station:TCOON:003:1,2013-12-01T09:06:00Z,26.8015,-97.4706,0.0,2.0,220.0,2.2,'11111222,11111222,11111222' 
TCOON,ioos:station:TCOON:003:1,2013-12-01T09:12:00Z,26.8015,-97.4706,0.0,2.0,221.0,2.1,'11111222,11111222,11111222' 
TCOON,ioos:station:TCOON:003:1,2013-12-01T09:18:00Z,26.8015,-97.4706,0.0,2.0,239.0,2.0,'11111222,11111222,11111222' 
TCOON,ioos:station:TCOON:003:1,2013-12-01T09:24:00Z,26.8015,-97.4706,0.0,1.8,241.0,2.1,'11111222,11111222,11111222' 
TCOON,ioos:station:TCOON:003:1,2013-12-01T09:30:00Z,26.8015,-97.4706,0.0,1.7,234.0,1.9,'11111222,11111222,11111222' 
TCOON,ioos:station:TCOON:003:1,2013-12-01T09:36:00Z,26.8015,-97.4706,0.0,1.5,238.0,1.8,'11111222,11111222,11111222' 
TCOON,ioos:station:TCOON:003:1,2013-12-01T09:42:00Z,26.8015,-97.4706,0.0,1.3,237.0,1.5,'11111222,11111222,11111222' 
TCOON,ioos:station:TCOON:003:1,2013-12-01T09:48:00Z,26.8015,-97.4706,0.0,1.1,231.0,1.3,'11111222,11111222,11111222' 
TCOON,ioos:station:TCOON:003:1,2013-12-01T09:54:00Z,26.8015,-97.4706,0.0,1.1,211.0,1.2,'11111222,11111222,11111222' 
TCOON,ioos:station:TCOON:003:1,2013-12-01T10:00:00Z,26.8015,-97.4706,0.0,0.8,214.0,1.0,'11111222,11111222,11111222' 
TCOON,ioos:station:TCOON:003:1,2013-12-01T10:06:00Z,26.8015,-97.4706,0.0,0.6,215.0,0.7,'11111222,11111222,11111222' 
TCOON,ioos:station:TCOON:003:1,2013-12-01T10:12:00Z,26.8015,-97.4706,0.0,0.1,215.0,0.5,'11111222,11111222,11111222' 
TCOON,ioos:station:TCOON:003:1,2013-12-01T10:18:00Z,26.8015,-97.4706,0.0,0.0,215.0,0.0,'11111222,11111222,11111222' 
TCOON,ioos:station:TCOON:003:1,2013-12-01T10:24:00Z,26.8015,-97.4706,0.0,0.0,214.0,0.3,'11111222,11111222,11111222' 
TCOON,ioos:station:TCOON:003:1,2013-12-01T10:30:00Z,26.8015,-97.4706,0.0,0.1,214.0,0.4,'11111222,11111222,11111222' 
TCOON,ioos:station:TCOON:003:1,2013-12-01T10:36:00Z,26.8015,-97.4706,0.0,0.0,238.0,0.0,'11111222,11111222,11111222' 
TCOON,ioos:station:TCOON:003:1,2013-12-01T10:42:00Z,26.8015,-97.4706,0.0,0.8,351.0,1.0,'11111222,11111222,11111222' 
TCOON,ioos:station:TCOON:003:1,2013-12-01T10:48:00Z,26.8015,-97.4706,0.0,0.8,5.0,0.9,'11111222,11111222,11111222' 
TCOON,ioos:station:TCOON:003:1,2013-12-01T10:54:00Z,26.8015,-97.4706,0.0,0.6,3.0,0.9,'11111222,11111222,11111222' 
TCOON,ioos:station:TCOON:003:1,2013-12-01T11:00:00Z,26.8015,-97.4706,0.0,0.6,89.0,0.8,'11111222,11111222,11111222' 
TCOON,ioos:station:TCOON:003:1,2013-12-01T11:06:00Z,26.8015,-97.4706,0.0,1.3,133.0,1.8,'11111222,11111222,11111222' 
TCOON,ioos:station:TCOON:003:1,2013-12-01T11:12:00Z,26.8015,-97.4706,0.0,1.6,135.0,1.9,'11111222,11111222,11111222' 
TCOON,ioos:station:TCOON:003:1,2013-12-01T11:18:00Z,26.8015,-97.4706,0.0,1.6,134.0,1.8,'11111222,11111222,11111222' 
TCOON,ioos:station:TCOON:003:1,2013-12-01T11:24:00Z,26.8015,-97.4706,0.0,1.6,142.0,1.8,'11111222,11111222,11111222' 
TCOON,ioos:station:TCOON:003:1,2013-12-01T11:30:00Z,26.8015,-97.4706,0.0,1.4,140.0,1.6,'11111222,11111222,11111222' 
TCOON,ioos:station:TCOON:003:1,2013-12-01T11:36:00Z,26.8015,-97.4706,0.0,0.9,91.0,1.4,'11111222,11111222,11111222' 
TCOON,ioos:station:TCOON:003:1,2013-12-01T11:42:00Z,26.8015,-97.4706,0.0,1.4,67.0,1.6,'11111222,11111222,11111222' 
TCOON,ioos:station:TCOON:003:1,2013-12-01T11:48:00Z,26.8015,-97.4706,0.0,1.7,67.0,2.0,'11111222,11111222,11111222' 
TCOON,ioos:station:TCOON:003:1,2013-12-01T11:54:00Z,26.8015,-97.4706,0.0,1.1,77.0,1.7,'11111222,11111222,11111222' 
TCOON,ioos:station:TCOON:003:1,2013-12-01T12:00:00Z,26.8015,-97.4706,0.0,1.0,145.0,1.3,'11111222,11111222,11111222' 
TCOON,ioos:station:TCOON:003:1,2013-12-01T12:06:00Z,26.8015,-97.4706,0.0,1.3,157.0,1.7,'11111222,11111222,11111222' 
TCOON,ioos:station:TCOON:003:1,2013-12-01T12:12:00Z,26.8015,-97.4706,0.0,1.2,109.0,1.5,'11111222,11111222,11111222' 
TCOON,ioos:station:TCOON:003:1,2013-12-01T12:18:00Z,26.8015,-97.4706,0.0,1.4,117.0,1.6,'11111222,11111222,11111222' 
TCOON,ioos:station:TCOON:003:1,2013-12-01T12:24:00Z,26.8015,-97.4706,0.0,1.3,142.0,1.5,'11111222,11111222,11111222' 
TCOON,ioos:station:TCOON:003:1,2013-12-01T12:30:00Z,26.8015,-97.4706,0.0,1.1,160.0,1.4,'11111222,11111222,11111222' 
TCOON,ioos:station:TCOON:003:1,2013-12-01T12:36:00Z,26.8015,-97.4706,0.0,1.4,164.0,1.4,'11111222,11111222,11111222' 
TCOON,ioos:station:TCOON:003:1,2013-12-01T12:42:00Z,26.8015,-97.4706,0.0,1.5,146.0,1.6,'11111222,11111222,11111222' 
TCOON,ioos:station:TCOON:003:1,2013-12-01T12:48:00Z,26.8015,-97.4706,0.0,1.8,116.0,1.9,'11111222,11111222,11111222' 
TCOON,ioos:station:TCOON:003:1,2013-12-01T12:54:00Z,26.8015,-97.4706,0.0,1.8,90.0,2.1,'11111222,11111222,11111222' 
TCOON,ioos:station:TCOON:003:1,2013-12-01T13:00:00Z,26.8015,-97.4706,0.0,1.8,95.0,2.4,'11111222,11111222,11111222' 
TCOON,ioos:station:TCOON:003:1,2013-12-01T13:06:00Z,26.8015,-97.4706,0.0,1.7,105.0,2.0,'11111222,11111222,11111222' 
TCOON,ioos:station:TCOON:003:1,2013-12-01T13:12:00Z,26.8015,-97.4706,0.0,1.5,105.0,1.7,'11111222,11111222,11111222' 
TCOON,ioos:station:TCOON:003:1,2013-12-01T13:18:00Z,26.8015,-97.4706,0.0,1.7,83.0,2.0,'11111222,11111222,11111222' 
TCOON,ioos:station:TCOON:003:1,2013-12-01T13:24:00Z,26.8015,-97.4706,0.0,2.2,83.0,2.2,'11111222,11111222,11111222' 
TCOON,ioos:station:TCOON:003:1,2013-12-01T13:30:00Z,26.8015,-97.4706,0.0,2.0,90.0,2.3,'11111222,11111222,11111222' 
TCOON,ioos:station:TCOON:003:1,2013-12-01T13:36:00Z,26.8015,-97.4706,0.0,1.7,82.0,2.0,'11111222,11111222,11111222' 
TCOON,ioos:station:TCOON:003:1,2013-12-01T13:42:00Z,26.8015,-97.4706,0.0,2.2,83.0,2.3,'11111222,11111222,11111222' 
TCOON,ioos:station:TCOON:003:1,2013-12-01T13:48:00Z,26.8015,-97.4706,0.0,1.8,79.0,2.2,'11111222,11111222,11111222' 
TCOON,ioos:station:TCOON:003:1,2013-12-01T13:54:00Z,26.8015,-97.4706,0.0,1.7,89.0,1.9,'11111222,11111222,11111222' 
TCOON,ioos:station:TCOON:003:1,2013-12-01T14:00:00Z,26.8015,-97.4706,0.0,1.5,92.0,1.9,'11111222,11111222,11111222' 
TCOON,ioos:station:TCOON:003:1,2013-12-01T14:06:00Z,26.8015,-97.4706,0.0,1.6,102.0,1.9,'11111222,11111222,11111222' 
TCOON,ioos:station:TCOON:003:1,2013-12-01T14:12:00Z,26.8015,-97.4706,0.0,1.7,111.0,2.0,'11111222,11111222,11111222' 
TCOON,ioos:station:TCOON:003:1,2013-12-01T14:18:00Z,26.8015,-97.4706,0.0,1.4,122.0,1.9,'11111222,11111222,11111222' 
TCOON,ioos:station:TCOON:003:1,2013-12-01T14:24:00Z,26.8015,-97.4706,0.0,1.3,110.0,1.7,'11111222,11111222,11111222' 
TCOON,ioos:station:TCOON:003:1,2013-12-01T14:30:00Z,26.8015,-97.4706,0.0,1.4,114.0,1.7,'11111222,11111222,11111222' 
TCOON,ioos:station:TCOON:003:1,2013-12-01T14:36:00Z,26.8015,-97.4706,0.0,1.5,112.0,1.7,'11111222,11111222,11111222' 
TCOON,ioos:station:TCOON:003:1,2013-12-01T14:42:00Z,26.8015,-97.4706,0.0,1.8,108.0,2.0,'11111222,11111222,11111222' 
TCOON,ioos:station:TCOON:003:1,2013-12-01T14:48:00Z,26.8015,-97.4706,0.0,2.0,110.0,2.2,'11111222,11111222,11111222' 
TCOON,ioos:station:TCOON:003:1,2013-12-01T14:54:00Z,26.8015,-97.4706,0.0,1.8,113.0,2.3,'11111222,11111222,11111222' 
TCOON,ioos:station:TCOON:003:1,2013-12-01T15:00:00Z,26.8015,-97.4706,0.0,1.4,122.0,1.9,'11111222,11111222,11111222' 
TCOON,ioos:station:TCOON:003:1,2013-12-01T15:06:00Z,26.8015,-97.4706,0.0,1.5,130.0,2.0,'11111222,11111222,11111222' 
TCOON,ioos:station:TCOON:003:1,2013-12-01T15:12:00Z,26.8015,-97.4706,0.0,1.5,131.0,1.8,'11111222,11111222,11111222' 
TCOON,ioos:station:TCOON:003:1,2013-12-01T15:18:00Z,26.8015,-97.4706,0.0,1.4,145.0,1.7,'11111222,11111222,11111222' 
TCOON,ioos:station:TCOON:003:1,2013-12-01T15:24:00Z,26.8015,-97.4706,0.0,1.3,149.0,1.5,'11111222,11111222,11111222' 
TCOON,ioos:station:TCOON:003:1,2013-12-01T15:30:00Z,26.8015,-97.4706,0.0,1.1,160.0,1.3,'11111222,11111222,11111222' 
TCOON,ioos:station:TCOON:003:1,2013-12-01T15:36:00Z,26.8015,-97.4706,0.0,1.1,167.0,1.2,'11111222,11111222,11111222' 
TCOON,ioos:station:TCOON:003:1,2013-12-01T15:42:00Z,26.8015,-97.4706,0.0,1.2,177.0,1.3,'11111222,11111222,11111222' 
TCOON,ioos:station:TCOON:003:1,2013-12-01T15:48:00Z,26.8015,-97.4706,0.0,1.4,163.0,1.5,'11111222,11111222,11111222' 
TCOON,ioos:station:TCOON:003:1,2013-12-01T15:54:00Z,26.8015,-97.4706,0.0,1.9,163.0,2.0,'11111222,11111222,11111222' 
TCOON,ioos:station:TCOON:003:1,2013-12-01T16:00:00Z,26.8015,-97.4706,0.0,2.6,153.0,2.8,'11111222,11111222,11111222' 
TCOON,ioos:station:TCOON:003:1,2013-12-01T16:06:00Z,26.8015,-97.4706,0.0,2.7,145.0,3.0,'11111222,11111222,11111222' 
TCOON,ioos:station:TCOON:003:1,2013-12-01T16:12:00Z,26.8015,-97.4706,0.0,2.6,146.0,3.1,'11111222,11111222,11111222' 
TCOON,ioos:station:TCOON:003:1,2013-12-01T16:18:00Z,26.8015,-97.4706,0.0,2.7,139.0,3.0,'11111222,11111222,11111222' 
TCOON,ioos:station:TCOON:003:1,2013-12-01T16:24:00Z,26.8015,-97.4706,0.0,2.7,136.0,3.1,'11111222,11111222,11111222' 
TCOON,ioos:station:TCOON:003:1,2013-12-01T16:30:00Z,26.8015,-97.4706,0.0,2.8,139.0,3.1,'11111222,11111222,11111222' 
TCOON,ioos:station:TCOON:003:1,2013-12-01T16:36:00Z,26.8015,-97.4706,0.0,2.9,138.0,3.3,'11111222,11111222,11111222' 
TCOON,ioos:station:TCOON:003:1,2013-12-01T16:42:00Z,26.8015,-97.4706,0.0,3.0,139.0,3.5,'11111222,11111222,11111222' 
TCOON,ioos:station:TCOON:003:1,2013-12-01T16:48:00Z,26.8015,-97.4706,0.0,3.1,146.0,3.6,'11111222,11111222,11111222' 
TCOON,ioos:station:TCOON:003:1,2013-12-01T16:54:00Z,26.8015,-97.4706,0.0,3.2,149.0,3.6,'11111222,11111222,11111222' 
TCOON,ioos:station:TCOON:003:1,2013-12-01T17:00:00Z,26.8015,-97.4706,0.0,3.2,153.0,3.7,'11111222,11111222,11111222' 
TCOON,ioos:station:TCOON:003:1,2013-12-01T17:06:00Z,26.8015,-97.4706,0.0,3.5,153.0,3.9,'11111222,11111222,11111222' 
TCOON,ioos:station:TCOON:003:1,2013-12-01T17:12:00Z,26.8015,-97.4706,0.0,4.0,153.0,4.2,'11111222,11111222,11111222' 
TCOON,ioos:station:TCOON:003:1,2013-12-01T17:18:00Z,26.8015,-97.4706,0.0,4.5,152.0,4.8,'11111222,11111222,11111222' 
TCOON,ioos:station:TCOON:003:1,2013-12-01T17:24:00Z,26.8015,-97.4706,0.0,4.6,151.0,5.1,'11111222,11111222,11111222' 
TCOON,ioos:station:TCOON:003:1,2013-12-01T17:30:00Z,26.8015,-97.4706,0.0,4.9,155.0,5.5,'11111222,11111222,11111222' 
TCOON,ioos:station:TCOON:003:1,2013-12-01T17:36:00Z,26.8015,-97.4706,0.0,5.2,155.0,5.8,'11111222,11111222,11111222' 
TCOON,ioos:station:TCOON:003:1,2013-12-01T17:42:00Z,26.8015,-97.4706,0.0,5.1,152.0,5.9,'11111222,11111222,11111222' 
TCOON,ioos:station:TCOON:003:1,2013-12-01T17:48:00Z,26.8015,-97.4706,0.0,4.9,151.0,5.5,'11111222,11111222,11111222' 
TCOON,ioos:station:TCOON:003:1,2013-12-01T17:54:00Z,26.8015,-97.4706,0.0,4.8,151.0,5.5,'11111222,11111222,11111222' 
TCOON,ioos:station:TCOON:003:1,2013-12-01T18:00:00Z,26.8015,-97.4706,0.0,5.4,151.0,6.0,'11111222,11111222,11111222' 
TCOON,ioos:station:TCOON:003:1,2013-12-01T18:06:00Z,26.8015,-97.4706,0.0,5.5,152.0,6.4,'11111222,11111222,11111222' 
TCOON,ioos:station:TCOON:003:1,2013-12-01T18:12:00Z,26.8015,-97.4706,0.0,5.5,151.0,6.3,'11111222,11111222,11111222' 
TCOON,ioos:station:TCOON:003:1,2013-12-01T18:18:00Z,26.8015,-97.4706,0.0,5.6,153.0,6.2,'11111222,11111222,11111222' 
TCOON,ioos:station:TCOON:003:1,2013-12-01T18:24:00Z,26.8015,-97.4706,0.0,6.3,152.0,7.3,'11111222,11111222,11111222' 
TCOON,ioos:station:TCOON:003:1,2013-12-01T18:30:00Z,26.8015,-97.4706,0.0,6.0,150.0,6.7,'11111222,11111222,11111222' 
TCOON,ioos:station:TCOON:003:1,2013-12-01T18:36:00Z,26.8015,-97.4706,0.0,6.1,151.0,7.0,'11111222,11111222,11111222' 
TCOON,ioos:station:TCOON:003:1,2013-12-01T18:42:00Z,26.8015,-97.4706,0.0,5.4,152.0,6.9,'11111222,11111222,11111222' 
TCOON,ioos:station:TCOON:003:1,2013-12-01T18:48:00Z,26.8015,-97.4706,0.0,5.9,154.0,6.7,'11111222,11111222,11111222' 
TCOON,ioos:station:TCOON:003:1,2013-12-01T18:54:00Z,26.8015,-97.4706,0.0,6.2,158.0,6.9,'11111222,11111222,11111222' 
TCOON,ioos:station:TCOON:003:1,2013-12-01T19:00:00Z,26.8015,-97.4706,0.0,5.8,157.0,6.6,'11111222,11111222,11111222' 
TCOON,ioos:station:TCOON:003:1,2013-12-01T19:06:00Z,26.8015,-97.4706,0.0,5.4,161.0,6.3,'11111222,11111222,11111222' 
TCOON,ioos:station:TCOON:003:1,2013-12-01T19:12:00Z,26.8015,-97.4706,0.0,6.0,161.0,6.8,'11111222,11111222,11111222' 
TCOON,ioos:station:TCOON:003:1,2013-12-01T19:18:00Z,26.8015,-97.4706,0.0,5.7,159.0,6.6,'11111222,11111222,11111222' 
TCOON,ioos:station:TCOON:003:1,2013-12-01T19:24:00Z,26.8015,-97.4706,0.0,6.0,158.0,7.2,'11111222,11111222,11111222' 
TCOON,ioos:station:TCOON:003:1,2013-12-01T19:30:00Z,26.8015,-97.4706,0.0,5.6,160.0,6.2,'11111222,11111222,11111222' 
TCOON,ioos:station:TCOON:003:1,2013-12-01T19:36:00Z,26.8015,-97.4706,0.0,5.6,158.0,6.6,'11111222,11111222,11111222' 
TCOON,ioos:station:TCOON:003:1,2013-12-01T19:42:00Z,26.8015,-97.4706,0.0,5.9,156.0,6.5,'11111222,11111222,11111222' 
TCOON,ioos:station:TCOON:003:1,2013-12-01T19:48:00Z,26.8015,-97.4706,0.0,5.3,159.0,6.3,'11111222,11111222,11111222' 
TCOON,ioos:station:TCOON:003:1,2013-12-01T19:54:00Z,26.8015,-97.4706,0.0,5.4,160.0,6.1,'11111222,11111222,11111222' 
TCOON,ioos:station:TCOON:003:1,2013-12-01T20:00:00Z,26.8015,-97.4706,0.0,5.4,162.0,5.9,'11111222,11111222,11111222' 
TCOON,ioos:station:TCOON:003:1,2013-12-01T20:06:00Z,26.8015,-97.4706,0.0,5.2,161.0,6.1,'11111222,11111222,11111222' 
TCOON,ioos:station:TCOON:003:1,2013-12-01T20:12:00Z,26.8015,-97.4706,0.0,5.8,161.0,6.5,'11111222,11111222,11111222' 
TCOON,ioos:station:TCOON:003:1,2013-12-01T20:18:00Z,26.8015,-97.4706,0.0,5.5,157.0,6.4,'11111222,11111222,11111222' 